Buenos Aires, Argentina

7:12 AM America en Enero 19, 2018 (GMT +0000)
Jorge Newbery Aeroparque

Tiempo Historia de SABE - Enero, 2018

Change the Weather History Date:

Viernes, Enero 12, 2018

  Actual Average Record
Temperature  
Temperatura media 82 ° F -  
Temperatura máxima 86 ° F 82 ° F 93 ° F (2015)
Temperatura mínima 75 ° F 68 ° F 61 ° F (2014)
Cooling Degree Days 16    
Growing Degree Days 32 (Base 50)    
Moisture  
Punto de rocío 70 ° F    
Average Humidity 63    
Maximum Humidity 78    
Minimum Humidity 36    
Precipitación  
Precipitación 0.00 pul 0.13 pul - ()
Presión al nivel del mar  
Presión al nivel del mar 29.77 pul    
Viento  
Velocidad del viento 10 mph ()    
Velocidad máxima del viento 23 mph    
Max Gust Speed 34 mph    
Visibilidad 6.1 Millas    
Eventos      
Averages and records for this station are not official NWS values.
T = Trace of Precipitation, MM = Missing Value Source: Averaged Metar Reports

Daily Weather History Graph

Daily Weather History Graph

Search for Another Location

Airport or City:

Trip Planner

Search our weather history database for the weather conditions in past years. The results will help you decide how hot, cold, wet, or windy it might be!

Date:

Astronomía

Jan. 12, 2018 Salida Puesta
Hora real 5:53 AM -03 8:09 PM -03
Crepúsculo civil 5:25 AM -03 8:38 PM -03
Crepúsculo náutico 4:49 AM -03 9:13 PM -03
Crepúsculo astronómico 4:11 AM -03 9:51 PM -03
Luna 2:37 AM -03 (1/12) 4:32 PM -03 (1/12)
Horas de luz 15h 13m
Horas de luz
14h 15m
Creciente menguante, 17% of the Moon is Illuminated
Ene 12
Creciente menguante
Ene 16
Nueva
Ene 24
Cuarto creciente
Ene 31
Luna llena
Feb 7
Cuarto menguante

Hourly Weather History & Observations

Hora (-03) Temp. Índice de calor Punto de rocío Humedad Presión Visibilidad Wind Dir Velocidad del viento Velocidad de ráfagas Precip Eventos Condiciones
12:00 AM 86 ° F - 63 ° F 36% 29.87 pul 6 mi SE 10.4 mph - -   Nubes dispersas
12:00 AM 86.0 ° F 86.6 ° F 62.6 ° F 45% 29.86 pul - SE 10.4 mph - N/A   Despejado
1:00 AM 82.4 ° F 85.4 ° F 68.0 ° F 62% 29.83 pul - SE 19.6 mph - N/A   Despejado
2:00 AM 82.4 ° F 87.2 ° F 71.6 ° F 70% 29.83 pul - ESE 15.0 mph - N/A   Despejado
3:00 AM 84 ° F - 70 ° F 55% 29.82 pul 6 mi NE 8.1 mph - -   Nublado
3:00 AM 84.2 ° F 88.4 ° F 69.8 ° F 62% 29.80 pul - NE 8.1 mph - N/A   Despejado
4:00 AM 84.2 ° F 89.6 ° F 71.6 ° F 66% 29.80 pul - Norte 11.5 mph - N/A   Despejado
5:00 AM 82.4 ° F 87.2 ° F 71.6 ° F 70% 29.80 pul - Norte 9.2 mph - N/A   Despejado
6:00 AM 82 ° F - 70 ° F 59% 29.81 pul 6 mi Norte 11.5 mph - -   Muy nublado
6:00 AM 82.4 ° F 87.2 ° F 71.6 ° F 70% 29.80 pul - Norte 10.4 mph - N/A   Despejado
7:00 AM 82.4 ° F 87.2 ° F 71.6 ° F 70% 29.80 pul 6.2 mi Norte 6.9 mph - N/A   Nubes dispersas
8:00 AM 82.4 ° F 87.2 ° F 71.6 ° F 70% 29.80 pul 6.2 mi Norte 6.9 mph - N/A   Nubes dispersas
9:00 AM 85 ° F - 71 ° F 53% 29.82 pul 6 mi NE 8.1 mph - -   Nubes dispersas
9:00 AM 84.2 ° F 88.4 ° F 69.8 ° F 62% 29.80 pul 6.2 mi NE 4.6 mph - N/A   Nubes dispersas
10:00 AM 84.2 ° F 89.6 ° F 71.6 ° F 66% 29.80 pul 6.2 mi ESE 8.1 mph - N/A   Nubes dispersas
11:00 AM 84.2 ° F 89.6 ° F 71.6 ° F 66% 29.80 pul 6.2 mi NE 8.1 mph - N/A   Nubes dispersas
12:00 PM 85 ° F - 72 ° F 57% 29.80 pul 6 mi ENE 6.9 mph - -   Parcialmente nublado
12:00 PM 86.0 ° F 93.4 ° F 73.4 ° F 66% 29.77 pul 6.2 mi ENE 11.5 mph - N/A   Nubes dispersas
1:00 PM 84.2 ° F 90.9 ° F 73.4 ° F 70% 29.80 pul 6.2 mi ENE 9.2 mph - N/A   Muy nublado
2:00 PM 84.2 ° F 90.9 ° F 73.4 ° F 70% 29.74 pul 6.2 mi NE 3.5 mph - N/A   Muy nublado
3:00 PM 86 ° F - 75 ° F 62% 29.75 pul 6 mi Este 10.4 mph - -   Nubes dispersas
3:00 PM 91.4 ° F 93.2 ° F 64.4 ° F 41% 29.74 pul 6.2 mi NO 6.9 mph - N/A   Muy nublado
4:00 PM 84.2 ° F 90.9 ° F 73.4 ° F 70% 29.71 pul 6.2 mi ENE 12.7 mph - N/A   Nubes dispersas
5:00 PM 84.2 ° F 89.6 ° F 71.6 ° F 66% 29.71 pul 6.2 mi ENE 8.1 mph - N/A   Muy nublado
6:00 PM 82 ° F - 72 ° F 64% 29.72 pul 6 mi NE 23.0 mph - -   Nublado
6:00 PM 84.2 ° F 89.6 ° F 71.6 ° F 66% 29.71 pul 6.2 mi NE 23.0 mph 34.5 mph N/A   Muy nublado
7:00 PM 78.8 ° F - 69.8 ° F 74% 29.71 pul - Norte 18.4 mph 32.2 mph N/A   Despejado
8:00 PM 78.8 ° F - 68.0 ° F 69% 29.71 pul - NE 12.7 mph - N/A   Despejado
9:00 PM 80 ° F - 67 ° F 57% 29.70 pul 6 mi NE 6.9 mph - -   Parcialmente nublado
9:00 PM 80.6 ° F 82.7 ° F 66.2 ° F 61% 29.68 pul - NE 6.9 mph - N/A   Despejado
10:00 PM 77.0 ° F - 69.8 ° F 78% 29.71 pul - Norte 11.5 mph - N/A   Despejado
11:00 PM 75.2 ° F - 68.0 ° F 78% 29.71 pul - NNO 11.5 mph - N/A   Despejado